Date String (YYYY-MM-DD hh:mm:ss) UTC,Instrument flags,Ambient pressure (hPa),Sample flow (lpm),Bypass flow (lpm),Sample temperature (°C),Ambient temperature (°C),ASC tube jacket temperature (°C),LED temperature (°C),Box temperature (°C),Sample RH (%),Span deviation,Mass concentration (μg/m³),Mass concentration (μg/m³),Mass concentration (μg/m³)
DateTimeUTC,F1_M11,P_M11,Q1_M11,Q2_M11,T1_M11,T2_M11,T3_M11,T4_M11,T5_M11,U1_M11,ZSPAN_M11,X0_M11,X2_M11,X1_M11
2023-01-03 11:00:00,,0816.7,5.00,0.00,22.3,22.0,00.0,31.0,24.2,12.0,0000.0,0000.81,0000.73,0000.72
2023-01-03 11:01:00,,0816.7,5.00,0.00,22.3,21.6,00.0,31.0,24.1,12.0,0000.0,0000.81,0000.73,0000.71
2023-01-03 11:02:00,,0816.6,5.00,0.00,22.2,21.2,00.0,31.0,23.9,12.0,0000.0,0000.81,0000.72,0000.71
2023-01-03 11:03:00,,0816.8,5.00,0.00,22.2,21.0,00.0,31.0,23.9,12.0,0000.0,0000.80,0000.71,0000.70
2023-01-03 11:04:00,,0816.8,5.00,0.00,22.2,20.9,00.0,31.0,23.8,12.0,0000.0,0000.78,0000.71,0000.69
2023-01-03 11:05:00,,0816.9,5.00,0.00,22.1,20.8,00.0,31.0,23.7,12.0,0000.0,0000.77,0000.70,0000.69
2023-01-03 11:06:00,,0817.1,5.00,0.00,22.1,20.6,00.0,31.0,23.6,12.1,0000.0,0000.77,0000.71,0000.69
2023-01-03 11:07:00,,0817.1,5.01,0.00,22.0,20.5,00.0,31.0,23.6,12.1,0000.0,0000.74,0000.69,0000.68
2023-01-03 11:08:00,,0817.1,5.00,0.00,22.0,20.4,00.0,31.0,23.5,12.0,0000.0,0000.73,0000.68,0000.67
2023-01-03 11:09:00,,0817.0,5.00,0.00,22.0,20.5,00.0,31.0,23.5,12.0,0000.0,0000.73,0000.68,0000.67
2023-01-03 11:10:00,,0817.0,4.99,0.00,22.0,21.3,00.0,30.9,23.8,11.9,0000.0,0000.73,0000.68,0000.67
2023-01-03 11:11:00,,0816.9,5.00,0.00,22.1,22.3,00.0,30.9,24.1,11.9,0000.0,0000.74,0000.68,0000.67
2023-01-03 11:12:00,,0817.1,5.00,0.00,22.3,22.6,00.0,30.9,24.2,11.8,0000.0,0000.77,0000.70,0000.68
2023-01-03 11:13:00,,0816.9,5.00,0.00,22.3,22.1,00.0,31.0,24.1,11.8,0000.0,0000.77,0000.70,0000.68
2023-01-03 11:14:00,,0817.0,4.99,0.00,22.3,21.7,00.0,31.0,24.0,11.7,0000.0,0000.83,0000.73,0000.69
2023-01-03 11:15:00,,0817.0,5.00,0.00,22.2,21.3,00.0,31.0,23.9,11.6,0000.0,0000.88,0000.76,0000.71
2023-01-03 11:16:00,,0817.1,4.99,0.00,22.2,21.0,00.0,31.0,23.8,11.6,0000.0,0000.92,0000.79,0000.74
2023-01-03 11:17:00,,0816.8,4.99,0.00,22.1,20.8,00.0,31.0,23.7,11.6,0000.0,0000.93,0000.79,0000.75
2023-01-03 11:18:00,,0817.0,4.99,0.00,22.1,20.7,00.0,31.0,23.7,11.6,0000.0,0000.96,0000.81,0000.77
2023-01-03 11:19:00,,0817.0,5.00,0.00,22.1,20.5,00.0,31.0,23.7,11.6,0000.0,0000.99,0000.84,0000.79
2023-01-03 11:20:00,,0816.9,5.01,0.00,22.0,20.5,00.0,31.0,23.6,11.6,0000.0,0001.00,0000.86,0000.81
2023-01-03 11:21:00,,0817.1,4.99,0.00,22.0,20.4,00.0,30.9,23.5,11.7,0000.0,0001.02,0000.87,0000.82
2023-01-03 11:22:00,,0816.7,4.99,0.00,21.9,20.3,00.0,30.9,23.5,11.6,0000.0,0001.05,0000.89,0000.83
2023-01-03 11:23:00,,0816.9,5.02,0.00,22.0,21.0,00.0,30.9,23.7,11.6,0000.0,0001.03,0000.89,0000.84
2023-01-03 11:24:00,,0817.1,5.00,0.00,22.1,22.0,00.0,30.8,24.0,11.6,0000.0,0001.03,0000.89,0000.85
2023-01-03 11:25:00,,0817.1,4.97,0.00,22.2,22.7,00.0,30.9,24.2,11.5,0000.0,0000.99,0000.88,0000.84
2023-01-03 11:26:00,,0816.7,5.01,0.00,22.3,22.4,00.0,30.9,24.1,11.5,0000.0,0000.94,0000.85,0000.83
2023-01-03 11:27:00,,0816.6,5.04,0.00,22.2,21.9,00.0,31.0,24.0,11.6,0000.0,0000.92,0000.84,0000.82
2023-01-03 11:28:00,,0816.6,4.97,0.00,22.2,21.4,00.0,31.0,23.9,11.6,0000.0,0000.92,0000.84,0000.82
2023-01-03 11:29:00,,0816.6,4.98,0.00,22.2,21.2,00.0,31.0,23.9,11.7,0000.0,0000.89,0000.82,0000.81
2023-01-03 11:30:00,,0816.7,5.05,0.00,22.1,21.0,00.0,31.0,23.8,11.7,0000.0,0000.87,0000.81,0000.80
2023-01-03 11:31:00,,0816.7,4.99,0.00,22.1,20.8,00.0,31.0,23.7,11.7,0000.0,0000.89,0000.82,0000.79
2023-01-03 11:32:00,,0816.8,4.99,0.00,22.1,20.7,00.0,31.0,23.7,11.7,0000.0,0000.88,0000.81,0000.78
2023-01-03 11:33:00,,0816.8,5.04,0.00,22.0,20.6,00.0,31.0,23.6,11.7,0000.0,0000.85,0000.80,0000.77
2023-01-03 11:34:00,,0816.8,4.98,0.00,22.0,20.5,00.0,31.0,23.6,11.7,0000.0,0000.82,0000.78,0000.76
2023-01-03 11:35:00,,0816.7,4.97,0.00,22.0,20.5,00.0,30.9,23.5,11.7,0000.0,0000.81,0000.77,0000.75
2023-01-03 11:36:00,,0816.7,5.08,0.00,22.0,21.3,00.0,30.9,23.8,11.7,0000.0,0000.81,0000.77,0000.75
2023-01-03 11:37:00,,0816.9,5.01,0.00,22.1,22.2,00.0,30.9,24.0,11.7,0000.0,0000.82,0000.78,0000.76
2023-01-03 11:38:00,,0817.0,4.98,0.00,22.3,22.7,00.0,30.9,24.2,11.6,0000.0,0000.85,0000.79,0000.77
2023-01-03 11:39:00,,0817.1,4.98,0.00,22.3,22.3,00.0,31.0,24.2,11.5,0000.0,0000.85,0000.79,0000.77
2023-01-03 11:40:00,,0816.8,5.05,0.00,22.3,21.8,00.0,31.0,24.1,11.5,0000.0,0000.85,0000.80,0000.77
2023-01-03 11:41:00,,0817.0,4.99,0.00,22.3,21.4,00.0,31.0,24.0,11.5,0000.0,0000.86,0000.80,0000.78
2023-01-03 11:42:00,,0816.9,5.01,0.00,22.2,21.1,00.0,31.0,23.9,11.5,0000.0,0000.84,0000.79,0000.77
2023-01-03 11:43:00,,0817.1,4.99,0.00,22.2,21.0,00.0,31.0,23.8,11.6,0000.0,0000.84,0000.79,0000.78
2023-01-03 11:44:00,,0817.1,5.10,0.00,22.1,20.8,00.0,31.0,23.7,11.6,0000.0,0000.85,0000.80,0000.79
2023-01-03 11:45:00,,0817.1,4.97,0.00,22.1,20.6,00.0,31.0,23.6,11.6,0000.0,0000.87,0000.81,0000.80
2023-01-03 11:46:00,,0817.0,5.01,0.00,22.0,20.5,00.0,31.0,23.6,11.6,0000.0,0000.89,0000.83,0000.82
2023-01-03 11:47:00,,0817.1,4.99,0.00,22.0,20.4,00.0,31.0,23.5,11.6,0000.0,0000.90,0000.84,0000.83
2023-01-03 11:48:00,,0817.2,5.00,0.00,22.0,20.5,00.0,30.9,23.5,11.6,0000.0,0000.91,0000.85,0000.84
2023-01-03 11:49:00,,0817.2,5.01,0.00,22.0,21.4,00.0,30.9,23.8,11.6,0000.0,0000.90,0000.85,0000.84
2023-01-03 11:50:00,,0816.9,5.00,0.00,22.2,22.3,00.0,30.9,24.1,11.5,0000.0,0000.91,0000.86,0000.85
2023-01-03 11:51:00,,0817.0,4.98,0.00,22.3,23.1,00.0,30.9,24.3,11.4,0000.0,0001.06,0000.89,0000.87
2023-01-03 11:52:00,,0816.9,5.03,0.00,22.3,22.7,00.0,31.0,24.3,11.4,0000.0,0001.09,0000.91,0000.89
2023-01-03 11:53:00,,0816.7,5.00,0.00,22.3,22.1,00.0,31.0,24.2,11.3,0000.0,0001.11,0000.93,0000.91
2023-01-03 11:54:00,,0816.7,4.95,0.00,22.3,21.6,00.0,31.1,24.0,11.4,0000.0,0001.15,0000.95,0000.93
2023-01-03 11:55:00,,0816.6,5.01,0.00,22.3,21.3,00.0,31.1,23.9,11.4,0000.0,0001.22,0000.99,0000.96
2023-01-03 11:56:00,,0816.6,5.02,0.00,22.2,21.1,00.0,31.1,23.8,11.4,0000.0,0001.26,0001.03,0000.99
2023-01-03 11:57:00,,0816.6,5.02,0.00,22.2,20.9,00.0,31.1,23.8,11.3,0000.0,0001.29,0001.06,0001.02
2023-01-03 11:58:00,,0816.6,4.98,0.00,22.1,20.8,00.0,31.0,23.7,11.3,0000.0,0001.33,0001.10,0001.06
2023-01-03 11:59:00,,0816.7,4.98,0.00,22.1,20.7,00.0,31.0,23.7,11.3,0000.0,0001.37,0001.14,0001.11
